Weather History for Amritsar, India

Change the Weather History Date:

Tuesday, February 19, 2013

  Actual Average Record
Temperature  
Mean Temperature 57 °F -  
Max Temperature 69 °F 69 °F 80 °F (2006)
Min Temperature 45 °F 47 °F 41 °F (2000)
Degree Days  
Heating Degree Days 8    
Growing Degree Days 7 (Base 50)    
Moisture  
Dew Point 55 °F    
Average Humidity 89    
Maximum Humidity 100    
Minimum Humidity 64    
Precipitation  
Precipitation 0.00 in - - ()
Sea Level Pressure  
Sea Level Pressure 29.99 in    
Wind  
Wind Speed 1 mph ()    
Max Wind Speed 7 mph    
Max Gust Speed -    
Visibility 1.5 miles    
Events Fog    
Averages and records for this station are not official NWS values.
T = Trace of Precipitation, MM = Missing Value Source: Averaged Metar Reports

Daily Weather History Graph

Daily Weather History Graph

Search for Another Location

Airport:

Trip Planner

Search our weather history database for the weather conditions in past years. The results will help you decide how hot, cold, wet, or windy it might be!

Date:

Astronomy

Feb. 19, 2013 Rise Set
Actual Time 7:08 AM IST 6:20 PM IST
Civil Twilight 6:44 AM IST 6:45 PM IST
Nautical Twilight 6:15 AM IST 7:14 PM IST
Astronomical Twilight 5:47 AM IST 7:42 PM IST
Moon 12:41 PM IST (2/19) 2:06 AM IST (2/19)
Length of Visible Light 12h 01m
Length of Day
11h 11m
Waxing Gibbous, 63% of the Moon is Illuminated
Feb 19
Waxing Gibbous
Feb 26
Full
Mar 5
Last Quarter
Mar 12
New
Mar 19
First Quarter

Hourly Weather History & Observations

Time (IST) Temp. Dew Point Humidity Pressure Visibility Wind Dir Wind Speed Gust Speed Precip Events Conditions
12:30 AM 50.0 °F 50.0 °F 100% 30.01 in 0.1 mi Calm Calm - N/A Fog Fog
1:30 AM 50.0 °F 48.2 °F 94% 30.01 in 0.1 mi Calm Calm - N/A Fog Fog
2:30 AM 50.0 °F 48.2 °F 94% 30.01 in 0.1 mi Calm Calm - N/A Fog Fog
3:00 AM 50.0 °F 50.0 °F 100% 29.98 in 0.1 mi Calm Calm - N/A Fog Fog
4:00 AM 51.8 °F 51.8 °F 100% 29.98 in 0.6 mi Calm Calm - N/A   Mist
4:30 AM - - N/A% 29.95 in 0.6 mi Calm Calm - N/A   Mist
5:00 AM 50.0 °F 50.0 °F 100% 29.95 in 0.6 mi Calm Calm - N/A   Mist
5:30 AM - - N/A% 29.95 in - Calm Calm - N/A   Mist
6:00 AM 48.2 °F 48.2 °F 100% 29.95 in - Calm Calm - N/A   Mist
6:30 AM 48.2 °F 48.2 °F 100% 29.98 in - Calm Calm - N/A   Mist
7:00 AM 46.4 °F 46.4 °F 100% 29.98 in - Calm Calm - N/A   Mist
7:30 AM 48.2 °F 46.4 °F 93% 29.98 in - Calm Calm - N/A   Mist
8:00 AM 48.2 °F 48.2 °F 100% 29.98 in - Calm Calm - N/A   Mist
8:30 AM 48 °F 48 °F 100% 30.01 in 0 mi Calm Calm - - Fog Heavy Fog
8:30 AM 48.2 °F 48.2 °F 100% 30.01 in - Calm Calm - N/A Fog Fog
9:00 AM 50.0 °F 50.0 °F 100% 30.01 in - Calm Calm - N/A Fog Fog
9:30 AM 51.8 °F 51.8 °F 100% 30.01 in - Calm Calm - N/A Fog Fog
10:00 AM 55.4 °F 55.4 °F 100% 30.01 in 0.5 mi Calm Calm - N/A Fog Fog
10:30 AM 57.2 °F 57.2 °F 100% 30.04 in 1.2 mi NW 6.9 mph - N/A   Scattered Clouds
11:00 AM 62.6 °F 57.2 °F 82% 30.04 in 1.9 mi NW 4.6 mph - N/A   Scattered Clouds
11:30 AM 65 °F 61 °F 81% 30.02 in 2 mi NW 6.9 mph - -   Mist
11:30 AM 64.4 °F 60.8 °F 88% 30.04 in 2.5 mi NW 6.9 mph - N/A   Scattered Clouds
12:00 PM 64.4 °F 60.8 °F 88% 30.04 in 2.5 mi NW 6.9 mph - N/A   Scattered Clouds
1:00 PM 66.2 °F 59.0 °F 78% 30.01 in 3.1 mi NW 5.8 mph - N/A   Haze
1:30 PM 68.0 °F 57.2 °F 68% 30.01 in 3.1 mi NW 6.9 mph - N/A   Haze
2:00 PM 68.0 °F 57.2 °F 68% 29.98 in 3.1 mi NNW 5.8 mph - N/A   Haze
2:30 PM 68.0 °F 57.2 °F 68% 29.98 in 3.1 mi WNW 4.6 mph - N/A   Haze
3:00 PM 69.8 °F 57.2 °F 64% 29.98 in 2.5 mi Variable 2.3 mph - N/A   Haze
3:30 PM 69.8 °F 57.2 °F 64% 29.95 in 2.5 mi Variable 2.3 mph - N/A   Haze
4:00 PM 69.8 °F 59.0 °F 68% 29.95 in 2.5 mi WSW 5.8 mph - N/A   Haze
4:30 PM 69.8 °F 59.0 °F 68% 29.95 in 2.5 mi West 6.9 mph - N/A   Haze
5:00 PM 69.8 °F 59.0 °F 68% 29.95 in 2.5 mi West 4.6 mph - N/A   Haze
5:30 PM 68.0 °F 59.0 °F 73% 29.95 in 2.5 mi Calm Calm - N/A   Partly Cloudy
6:30 PM 64.4 °F 59.0 °F 83% 29.95 in 1.9 mi Calm Calm - N/A   Partly Cloudy
7:00 PM 62.6 °F 57.2 °F 82% 29.95 in 1.9 mi Calm Calm - N/A   Partly Cloudy
7:30 PM 60.8 °F 57.2 °F 88% 29.98 in 1.9 mi Calm Calm - N/A   Partly Cloudy
8:00 PM 59.0 °F 57.2 °F 94% 29.98 in 1.9 mi Calm Calm - N/A   Partly Cloudy
8:30 PM 59 °F 59 °F 100% 29.99 in 1 mi Calm Calm - -   Mist
8:30 PM 59.0 °F 59.0 °F 100% 30.01 in 1.9 mi Calm Calm - N/A   Mist
9:30 PM 57.2 °F 57.2 °F 100% 30.01 in 0.9 mi Calm Calm - N/A   Mist
10:00 PM 57.2 °F 57.2 °F 100% 30.01 in 0.6 mi Calm Calm - N/A   Mist
11:30 PM 55 °F 55 °F 100% 30.04 in 0 mi Calm Calm - - Fog Partial Fog
11:30 PM 55.4 °F 55.4 °F 100% 30.04 in 0.3 mi Calm Calm - N/A Fog Fog